Showing default

HAISHAO 1, 62190

Orbit data source: Space-Track

HAISHAO 1, 62190 is a Chinese payload satellite in LEO that was launched on Wed, 04 Dec 2024 UTC via a KUAIZHOU-1A launch vehicle from the Xichang Space Center, China (XSC). Payload-class satellites include a variety of spacecraft equipped with specific instruments for various scientific and technological missions. These include communications satellites like Starlink; space stations such as the ISS; scientific satellites like the Hubble; Earth observation satellites from companies like Planet Labs, Umbra, and HawkEye 360; GPS; miniature CubeSats for education and research; and military/defense satellites.

Loading next visibility...
Identifier
62190, 2024-228A
Orbit
LEO
Last TLE update
4 hours ago
Origin
Manufacturer
ZHWK/IMICAS
Mission
Operational Commercial Radar Imaging
Bus & Motor
ZK1, Unknown motor
Mass
400 kg wet, 400 kg dry
Launch date (UTC)
2024-12-04 (7 months ago)
Launch vehicle
KUAIZHOU-1A
Launch site
Xichang Space Center, China (XSC)
Object type
Payload
Rocket body
Debris
Shape & HBR
Box + 3 Pan, 6 m
Radar Cross Section
3.533 m², Large (>1 m²)

Expand to show TLE details & history

TLE from 4 hours ago
0 HAISHAO 1
1 62190U 24228A   25189.19687499  .00026838  00000-0  26549-3 0  9990
2 62190  42.9892 262.3127 0003139   6.0030 354.0873 15.65316174 33670
Epoch: 2025-07-08T04:43Z
TLE epoch observation values (Epoch: 2025-07-08T04:43:29.999Z)
Latitude
0.00003°
Longitude
-94.95759°
Altitude
369.993 km
Speed
7.691 km/s
True Right ascension
17h 29m 15s
True Declination
0° 00' 00"
Sunlit
Object was in full shadow at epoch
Visualization orbit readout
Latitude
5.741°
Longitude
77.94047°
Altitude
373.552 km
Speed
7.687 km/s
Apparent Right ascension
06h 30m 33s
Apparent Declination
-18° 07' 39"
Sunlit
Object is in daylight
Visualization observer readout
Local Sidereal Time
20:36:45
Azimuth
60.525° ENE
Elevation
-55.167°
Doppler factor
1
Orbital elements
Apogee altitude
376.428 km
Perigee altitude
372.189 km
Semi-major axis
6,752.445 km
Eccentricity
0.00031
Inclination
42.9892°
RAAN
262.3127°
Arg. of periapsis
6.003°
True anomaly
Unknown
Mean anomaly
354.0873°
Eccentric anomaly
Unknown
Mean motion
3.91157 °/min
Orbital period
92.03 mins
BSTAR
0.00026549
Loading maneuver chart data...
Loading SW <> Apogee altitude chart data...
Loading historical data...
Loading historical data...
Loading historical data...
Loading historical data...
Loading historical data...
Loading historical data...
Loading historical data...
Other satellites on launch #228 in the year 2024 (2024-12-04 UTC)

HAISHAO 1 Visibility forecast

Observer location: undefined°, undefined°

Span
Click to sort rows by Start time (UTC) header in descending order
Start Az.
Max El. time (UTC)
Max El. Az.
Max El.
End time (UTC)
End Az.
5 mins2025-07-08 09:35:01.105Z253.644° W2025-07-08 09:37:01.105Z273.247° WNW44.257°2025-07-08 09:40:01.105Z71.259° E
4 mins2025-07-08 11:12:01.105Z293.988° NW2025-07-08 11:14:01.105Z12.04° NNE34.563°2025-07-08 11:16:01.105Z68.962° E
4 mins2025-07-08 12:49:01.105Z292.485° WNW2025-07-08 12:50:01.105Z304.831° NW40.862°2025-07-08 12:53:01.105Z103.954° ESE
|